Location: Kudlacze
(49.7800°N, 20.0200°E)
Time: 06:28:11
(UTC+00:00)

Envisat - Pass Details

Date: 27 September 2021
Orbit: 764 x 766 km, 98.2° (Epoch: 23 October)

Event Time Altitude Azimuth Distance (km) Brightness Sun altitude
Rises 02:41:43 0° 26° (NNE) 3,244 7.0 -18.6°
Reaches altitude 10° 02:44:40 10° 43° (NE) 2,312 6.4 -18.1°
Maximum altitude 02:48:19 20° 89° (E) 1,732 5.7 -17.6°
Drops below altitude 10° 02:51:58 10° 136° (SE) 2,298 5.8 -17.0°
Sets 02:54:52 0° 153° (SSE) 3,218 6.3 -16.6°
